, NV

(GMT )
Eureka Airport

Weather History for K05U - April, 2014

Change the Weather History Date:

Friday, April 11, 2014

  Actual Average Record
Temperature  
Mean Temperature 52 °F -  
Max Temperature 73 °F - - ()
Min Temperature 30 °F - - ()
Degree Days  
Heating Degree Days 14    
Growing Degree Days 2 (Base 50)    
Moisture  
Dew Point 18 °F    
Average Humidity 29    
Maximum Humidity 55    
Minimum Humidity 10    
Precipitation  
Precipitation 0.00 in - - ()
Sea Level Pressure  
Sea Level Pressure 30.03 in    
Wind  
Wind Speed 6 mph (SE)    
Max Wind Speed 10 mph    
Max Gust Speed 20 mph    
Visibility 10 miles    
Events      
Averages and records for this station are not official NWS values.
T = Trace of Precipitation, MM = Missing Value Source: NWS Daily Summary

Daily Weather History Graph

Daily Weather History Graph

Search for Another Location

Airport or City:

Trip Planner

Search our weather history database for the weather conditions in past years. The results will help you decide how hot, cold, wet, or windy it might be!

Date:

Astronomy

Apr. 11, 2014 Rise Set
Actual Time 6:12 AM PDT 7:18 PM PDT
Civil Twilight 5:44 AM PDT 7:45 PM PDT
Nautical Twilight 5:12 AM PDT 8:18 PM PDT
Astronomical Twilight 4:37 AM PDT 8:53 PM PDT
Moon 4:03 PM PDT (4/11) 4:09 AM PDT (4/11)
Length of Visible Light 14h 00m
Length of Day
13h 05m
Waxing Gibbous, 87% of the Moon is Illuminated
Apr 11
Waxing Gibbous
Apr 15
Full
Apr 22
Last Quarter
Apr 28
New
May 6
First Quarter

Hourly Weather History & Observations

Time (PDT) Temp. Windchill Dew Point Humidity Pressure Visibility Wind Dir Wind Speed Gust Speed Precip Events Conditions
12:00 AM - - - N/A% 30.11 in 10.0 mi South 8.1 mph - N/A   Clear
12:20 AM 39.2 °F 35.0 °F 15.8 °F 39% 30.12 in 10.0 mi SSW 5.8 mph - N/A   Clear
12:40 AM 35.6 °F 29.9 °F 15.8 °F 44% 30.12 in 10.0 mi SSW 6.9 mph - N/A   Clear
1:00 AM 37.4 °F 32.8 °F 15.8 °F 41% 30.12 in 10.0 mi South 5.8 mph - N/A   Clear
1:20 AM 37.4 °F 32.1 °F 15.8 °F 41% 30.12 in 10.0 mi South 6.9 mph - N/A   Clear
1:40 AM 35.6 °F 31.7 °F 15.8 °F 44% 30.12 in 10.0 mi South 4.6 mph - N/A   Clear
2:00 AM 35.6 °F 30.7 °F 15.8 °F 44% 30.12 in 10.0 mi South 5.8 mph - N/A   Clear
2:20 AM 35.6 °F 30.7 °F 15.8 °F 44% 30.12 in 10.0 mi South 5.8 mph - N/A   Clear
2:40 AM 35.6 °F 29.9 °F 15.8 °F 44% 30.12 in 10.0 mi SSW 6.9 mph - N/A   Clear
3:00 AM 33.8 °F 27.7 °F 17.6 °F 52% 30.12 in 10.0 mi SSW 6.9 mph - N/A   Clear
3:20 AM 32.0 °F 25.6 °F 17.6 °F 55% 30.11 in 10.0 mi SSW 6.9 mph - N/A   Clear
3:40 AM 33.8 °F 27.7 °F 17.6 °F 52% 30.11 in 10.0 mi South 6.9 mph - N/A   Clear
4:00 AM 32.0 °F 28.7 °F 17.6 °F 55% 30.11 in 10.0 mi SSE 3.5 mph - N/A   Clear
4:20 AM 32.0 °F 25.6 °F 15.8 °F 51% 30.11 in 10.0 mi SSW 6.9 mph - N/A   Clear
4:40 AM 35.6 °F 29.9 °F 15.8 °F 44% 30.11 in 10.0 mi SSW 6.9 mph - N/A   Clear
5:00 AM 35.6 °F 29.2 °F 15.8 °F 44% 30.11 in 10.0 mi SSW 8.1 mph - N/A   Clear
5:20 AM 35.6 °F 29.2 °F 15.8 °F 44% 30.11 in 10.0 mi SSW 8.1 mph - N/A   Clear
5:40 AM 32.0 °F 25.6 °F 14.0 °F 48% 30.11 in 10.0 mi SSW 6.9 mph - N/A   Clear
6:00 AM 32.0 °F 27.5 °F 14.0 °F 48% 30.11 in 10.0 mi SW 4.6 mph - N/A   Clear
6:20 AM 32.0 °F 26.4 °F 14.0 °F 48% 30.11 in 10.0 mi SSW 5.8 mph - N/A   Clear
6:40 AM 30.2 °F 24.3 °F 15.8 °F 55% 30.11 in 10.0 mi WSW 5.8 mph - N/A   Clear
7:00 AM 32.0 °F 27.5 °F 15.8 °F 51% 30.11 in 10.0 mi SW 4.6 mph - N/A   Clear
7:20 AM 37.4 °F 33.8 °F 15.8 °F 41% 30.11 in 10.0 mi SSW 4.6 mph - N/A   Clear
7:40 AM 41.0 °F 38.0 °F 15.8 °F 36% 30.12 in 10.0 mi SW 4.6 mph - N/A   Clear
8:00 AM 46.4 °F 43.5 °F 17.6 °F 32% 30.11 in 10.0 mi SSW 5.8 mph - N/A   Clear
8:20 AM - - - N/A% 30.10 in 10.0 mi SSW 5.8 mph - N/A   Clear
8:40 AM 51.8 °F - 17.6 °F 26% 30.10 in 10.0 mi SW 3.5 mph - N/A   Clear
9:00 AM 55.4 °F - 15.8 °F 21% 30.10 in 10.0 mi Calm Calm - N/A   Clear
9:20 AM 59.0 °F - 17.6 °F 20% 30.09 in 10.0 mi Calm Calm - N/A   Clear
9:40 AM 62.6 °F - 19.4 °F 19% 30.09 in 10.0 mi NNW 3.5 mph - N/A   Clear
10:00 AM 64.4 °F - 23.0 °F 21% 30.09 in 10.0 mi NE 4.6 mph - N/A   Clear
10:20 AM 64.4 °F - 23.0 °F 21% 30.08 in 10.0 mi NE 6.9 mph - N/A   Clear
10:40 AM 64.4 °F - 23.0 °F 21% 30.08 in 10.0 mi NE 4.6 mph - N/A   Clear
11:00 AM 66.2 °F - 19.4 °F 17% 30.08 in 10.0 mi NE 5.8 mph - N/A   Clear
11:20 AM 66.2 °F - 19.4 °F 17% 30.07 in 10.0 mi NE 6.9 mph - N/A   Clear
11:40 AM 68.0 °F - 19.4 °F 16% 30.06 in 10.0 mi North 5.8 mph - N/A   Clear
12:00 PM 69.8 °F - 17.6 °F 14% 30.05 in 10.0 mi ENE 3.5 mph - N/A   Clear
12:20 PM 69.8 °F - 17.6 °F 14% 30.04 in 10.0 mi NNE 4.6 mph - N/A   Clear
1:00 PM 71.6 °F - 15.8 °F 12% 30.03 in 10.0 mi North 3.5 mph - N/A   Clear
1:20 PM 71.6 °F - 15.8 °F 12% 30.02 in 10.0 mi SSE 3.5 mph - N/A   Clear
1:40 PM 71.6 °F - 15.8 °F 12% 30.01 in 10.0 mi ESE 4.6 mph - N/A   Clear
2:00 PM 71.6 °F - 15.8 °F 12% 30.00 in 10.0 mi ENE 4.6 mph - N/A   Clear
2:20 PM 71.6 °F - 15.8 °F 12% 29.99 in 10.0 mi ENE 8.1 mph - N/A   Clear
2:40 PM 73.4 °F - 14.0 °F 10% 29.98 in 10.0 mi Calm Calm - N/A   Clear
3:00 PM 71.6 °F - 14.0 °F 11% 29.97 in 10.0 mi ESE 3.5 mph - N/A   Clear
3:20 PM 71.6 °F - 14.0 °F 11% 29.96 in 10.0 mi Calm Calm - N/A   Clear
3:40 PM 71.6 °F - 14.0 °F 11% 29.95 in 10.0 mi ENE 5.8 mph - N/A   Clear
4:00 PM 71.6 °F - 15.8 °F 12% 29.94 in 10.0 mi ENE 6.9 mph - N/A   Clear
4:20 PM 69.8 °F - 14.0 °F 12% 29.94 in 10.0 mi ENE 6.9 mph - N/A   Clear
4:40 PM 69.8 °F - 14.0 °F 12% 29.93 in 10.0 mi NE 6.9 mph - N/A   Clear
5:00 PM 68.0 °F - 15.8 °F 13% 29.93 in 10.0 mi NNE 8.1 mph - N/A   Clear
5:20 PM 68.0 °F - 14.0 °F 12% 29.93 in 10.0 mi NNE 4.6 mph 19.6 mph N/A   Clear
5:40 PM 68.0 °F - 14.0 °F 12% 29.92 in 10.0 mi North 4.6 mph - N/A   Clear
6:00 PM 68.0 °F - 17.6 °F 15% 29.92 in 10.0 mi North 4.6 mph - N/A   Clear
6:20 PM 66.2 °F - 19.4 °F 17% 29.92 in 10.0 mi NNE 4.6 mph - N/A   Clear
6:40 PM 64.4 °F - 21.2 °F 19% 29.92 in 10.0 mi North 8.1 mph - N/A   Scattered Clouds
7:00 PM 64.4 °F - 15.8 °F 15% 29.92 in 10.0 mi NE 8.1 mph - N/A   Mostly Cloudy
7:20 PM 64.4 °F - 19.4 °F 18% 29.92 in 10.0 mi NW 6.9 mph - N/A   Overcast
7:40 PM 62.6 °F - 19.4 °F 19% 29.93 in 10.0 mi NNE 10.4 mph 16.1 mph N/A   Overcast
8:00 PM 60.8 °F - 23.0 °F 23% 29.93 in 10.0 mi NE 6.9 mph - N/A   Overcast
8:20 PM 60.8 °F - 19.4 °F 20% 29.93 in 10.0 mi NE 9.2 mph - N/A   Overcast
8:40 PM 57.2 °F - 19.4 °F 23% 29.94 in 10.0 mi North 6.9 mph - N/A   Scattered Clouds
9:00 PM 55.4 °F - 19.4 °F 25% 29.94 in 10.0 mi NNE 4.6 mph - N/A   Clear
9:20 PM 51.8 °F - 21.2 °F 30% 29.95 in 10.0 mi SSW 4.6 mph - N/A   Clear
9:40 PM 48.2 °F - 23.0 °F 37% 29.95 in 10.0 mi SW 3.5 mph - N/A   Partly Cloudy
10:00 PM 46.4 °F 42.9 °F 24.8 °F 43% 29.95 in 10.0 mi SW 6.9 mph - N/A   Mostly Cloudy
10:20 PM 48.2 °F - 24.8 °F 40% 29.95 in 10.0 mi Calm Calm - N/A   Overcast
10:40 PM 48.2 °F - 24.8 °F 40% 29.95 in 10.0 mi South 3.5 mph - N/A   Overcast
11:00 PM 46.4 °F 43.5 °F 24.8 °F 43% 29.95 in 10.0 mi SE 5.8 mph - N/A   Mostly Cloudy
11:20 PM 46.4 °F 44.3 °F 24.8 °F 43% 29.95 in 10.0 mi ESE 4.6 mph - N/A   Partly Cloudy
11:40 PM 44.6 °F - 24.8 °F 46% 29.95 in 10.0 mi Calm Calm - N/A   Clear